Location: Biltmore Gardens
(41.6070°N, 83.4666°W)
Time: 14:29:52
(UTC+00:00)

Cosmos 1743 - Pass Details

Date: 14 July 2020
Orbit: 511 x 526 km, 82.6° (Epoch: 04 August)

Event Time Altitude Azimuth Distance (km) Brightness Sun altitude
Exits shadow 09:23:02 11° 238° (WSW) 1,671 4.6 -8.4°
Maximum altitude 09:25:44 21° 286° (WNW) 1,205 4.2 -8.0°
Drops below altitude 10° 09:28:41 10° 337° (NNW) 1,751 5.6 -7.6°
Sets 09:31:15 0° 354° (N) 2,646 6.8 -7.2°
